DB0LHR-6 Weather Reports


Display with metric or nautical units.
time (UTC)temp
F
wind
direction
speed
MPH
gust
MPH
rain 1hr
in
rain 24hr
in
rain mn
in
humidity
%
barometer
mb
20260505164615 58 172 0.0 0.0 0.00 0.00 0.00 85 1008.0
20260505163115 58 167 3.0 0.0 0.00 0.00 0.00 83 1008.0
20260505161615 59 316 0.0 0.0 0.00 0.00 0.00 82 1008.0
20260505160115 60 189 2.0 0.0 0.00 0.00 0.00 79 1008.0
20260505153116 63 113 0.0 0.0 0.00 0.00 0.00 66 1007.0
20260505151615 64 34 0.0 0.0 0.00 0.00 0.00 62 1007.0
20260505150115 66 10 0.0 0.0 0.00 0.00 0.00 61 1007.0
20260505140115 66 347 0.0 0.0 0.00 0.00 0.00 62 1008.0
20260505130115 63 13 0.0 0.0 0.00 0.00 0.00 73 1008.0
20260505124615 62 7 0.0 0.0 0.00 0.00 0.00 72 1008.0
20260505123115 62 16 0.0 0.0 0.00 0.00 0.00 71 1008.0
20260505121615 62 34 0.0 0.0 0.00 0.00 0.00 72 1009.0
20260505120115 62 14 0.0 0.0 0.00 0.00 0.00 72 1009.0
20260505114615 61 14 0.0 0.0 0.00 0.00 0.00 73 1009.0
20260505113115 61 0 0.0 0.0 0.00 0.00 0.00 75 1009.0
20260505111615 61 30 0.0 0.0 0.00 0.00 0.00 73 1009.0
20260505110115 61 0 0.0 0.0 0.00 0.00 0.00 72 1009.0
20260505101615 62 287 0.0 0.0 0.00 0.00 0.00 66 1009.0
20260505100115 62 284 0.0 0.0 0.00 0.00 0.00 65 1009.0
20260505094615 63 98 0.0 0.0 0.00 0.00 0.00 64 1009.0
20260505093115 64 101 0.0 0.0 0.00 0.00 0.00 61 1009.0
20260505091615 64 205 0.0 0.0 0.00 0.00 0.00 65 1009.0
20260505090115 63 210 0.0 0.0 0.00 0.00 0.00 69 1009.0
20260505084615 62 243 0.0 0.0 0.00 0.00 0.00 77 1010.0
20260505083115 61 211 0.0 0.0 0.00 0.00 0.00 85 1010.0
20260505081615 59 187 0.0 0.0 0.00 0.00 0.00 87 1010.0
20260505080115 58 187 0.0 0.0 0.00 0.00 0.00 87 1010.0
20260505074615 57 181 0.0 0.0 0.00 0.00 0.00 87 1010.0
20260505073115 57 179 0.0 0.0 0.00 0.00 0.00 86 1010.0
20260505071615 57 187 0.0 0.0 0.00 0.00 0.00 86 1010.0
20260505070115 57 194 0.0 0.0 0.00 0.00 0.00 87 1010.0
20260505064615 56 329 0.0 0.0 0.00 0.00 0.00 88 1010.0
20260505063115 56 194 0.0 0.0 0.00 0.00 0.00 89 1010.0
20260505061615 55 196 0.0 0.0 0.00 0.00 0.00 89 1010.0
20260505060115 55 181 0.0 0.0 0.00 0.00 0.00 89 1010.0
20260505054615 55 168 0.0 0.0 0.00 0.00 0.00 90 1010.0
20260505053115 54 129 0.0 0.0 0.00 0.00 0.00 90 1010.0
20260505051615 54 130 0.0 0.0 0.00 0.00 0.00 91 1010.0
20260505050115 53 154 0.0 0.0 0.00 0.00 0.00 91 1010.0
20260505041615 53 153 0.0 0.0 0.00 0.00 0.00 91 1010.0
20260505040115 53 137 0.0 0.0 0.00 0.00 0.00 91 1010.0
20260505034615 53 129 0.0 0.0 0.00 0.00 0.00 90 1010.0
20260505033115 53 155 0.0 0.0 0.00 0.00 0.00 89 1010.0
20260505031615 53 161 0.0 0.0 0.00 0.00 0.00 89 1010.0
20260505030115 53 151 0.0 0.0 0.00 0.00 0.00 89 1010.0
20260505024615 53 151 0.0 0.0 0.00 0.00 0.00 90 1010.0
20260505023115 53 143 0.0 0.0 0.00 0.00 0.00 90 1010.0
20260505021615 53 182 0.0 0.0 0.00 0.00 0.00 90 1011.0
20260505020115 54 105 0.0 0.0 0.00 0.00 0.00 89 1011.0
20260505014615 54 122 0.0 0.0 0.00 0.00 0.00 89 1011.0
20260505013115 54 138 0.0 0.0 0.00 0.00 0.00 89 1011.0
20260505011615 54 141 0.0 0.0 0.00 0.00 0.00 88 1011.0
20260505010115 54 138 0.0 0.0 0.00 0.00 0.00 88 1011.0
20260505004615 54 133 0.0 0.0 0.00 0.00 0.00 88 1012.0
20260505003115 55 158 0.0 0.0 0.00 0.00 0.00 87 1012.0
20260505001615 55 142 0.0 0.0 0.00 0.00 0.00 87 1012.0
20260505000115 55 113 0.0 0.0 0.00 0.00 0.00 86 1012.0
20260504234615 56 162 0.0 0.0 0.00 0.00 0.00 86 1012.0
20260504233115 56 162 0.0 0.0 0.00 0.00 0.00 85 1012.0
20260504231615 56 110 0.0 0.0 0.00 0.00 0.00 84 1012.0
20260504230115 56 123 0.0 0.0 0.00 0.00 0.00 84 1012.0
20260504224615 56 82 0.0 0.0 0.00 0.00 0.00 83 1012.0
20260504223115 57 109 0.0 0.0 0.00 0.00 0.00 82 1012.0
20260504221615 57 133 0.0 0.0 0.00 0.00 0.00 83 1012.0
20260504220115 57 153 0.0 0.0 0.00 0.00 0.00 83 1013.0
20260504214615 57 172 0.0 0.0 0.00 0.00 0.00 83 1013.0
20260504213115 57 138 0.0 0.0 0.00 0.00 0.00 82 1013.0
20260504211615 57 171 0.0 0.0 0.00 0.00 0.00 80 1013.0
20260504210115 58 119 0.0 0.0 0.00 0.00 0.00 80 1013.0
20260504204615 58 146 0.0 0.0 0.00 0.00 0.00 78 1013.0
20260504203115 58 172 0.0 0.0 0.00 0.00 0.00 77 1013.0
20260504201615 58 186 0.0 0.0 0.00 0.00 0.00 77 1013.0
20260504200115 58 168 0.0 0.0 0.00 0.00 0.00 76 1013.0
20260504194615 59 156 0.0 0.0 0.00 0.00 0.00 75 1013.0
20260504193115 59 143 0.0 0.0 0.00 0.00 0.00 73 1013.0
20260504191615 59 136 0.0 0.0 0.00 0.00 0.00 70 1013.0
20260504190115 60 151 0.0 0.0 0.00 0.00 0.00 68 1013.0
20260504184615 60 161 0.0 0.0 0.00 0.00 0.00 66 1013.0
20260504183115 60 167 0.0 0.0 0.00 0.00 0.00 64 1013.0
20260504181615 61 181 0.0 0.0 0.00 0.00 0.00 61 1013.0
20260504180115 62 175 1.0 0.0 0.00 0.00 0.00 56 1013.0
20260504174615 63 308 0.0 0.0 0.00 0.00 0.00 51 1013.0
20260504173115 64 156 0.0 0.0 0.00 0.00 0.00 45 1013.0
20260504171615 65 208 0.0 0.0 0.00 0.00 0.00 43 1013.0
20260504170115 65 228 0.0 0.0 0.00 0.00 0.00 43 1013.0